Weather History for KFRI - March, 2014

Change the Weather History Date:

Saturday, March 22, 2014

  Actual Average (KMHK) Record (KMHK)
Temperature  
Mean Temperature 36 °F 46 °F  
Max Temperature 45 °F 59 °F 84 °F (2011)
Min Temperature 26 °F 32 °F 8 °F (2002)
Degree Days  
Heating Degree Days 30 19  
Month to date heating degree days 519  
Since 1 July heating degree days 4679  
Cooling Degree Days 0 0  
Month to date cooling degree days 0  
Year to date cooling degree days 0  
Moisture  
Dew Point 14 °F    
Average Humidity 48    
Maximum Humidity 88    
Minimum Humidity 21    
Precipitation  
Precipitation 0.00 in 0.06 in 0.15 in (2012)
Month to date precipitation 1.61  
Year to date precipitation 3.33  
Sea Level Pressure  
Sea Level Pressure 30.36 in    
Wind  
Wind Speed 14 mph (NNE)    
Max Wind Speed 21 mph    
Max Gust Speed 28 mph    
Visibility 10 miles    
Events      
T = Trace of Precipitation, MM = Missing Value Source: NWS Daily Summary

Daily Weather History Graph

Daily Weather History Graph

Search for Another Location

Airport or City:

Trip Planner

Search our weather history database for the weather conditions in past years. The results will help you decide how hot, cold, wet, or windy it might be!

Date:

Astronomy

Mar. 22, 2014 Rise Set
Actual Time 7:27 AM CDT 7:41 PM CDT
Civil Twilight 7:00 AM CDT 8:07 PM CDT
Nautical Twilight 6:29 AM CDT 8:39 PM CDT
Astronomical Twilight 5:57 AM CDT 9:10 PM CDT
Moon 12:59 AM CDT (3/22) 11:14 AM CDT (3/22)
Length of Visible Light 13h 07m
Length of Day
12h 13m
Waning Gibbous, 65% of the Moon is Illuminated
Mar 22
Waning Gibbous
Mar 23
Last Quarter
Mar 30
New
Apr 7
First Quarter
Apr 15
Full

Hourly Weather History & Observations

Time (CDT) Temp. Windchill Dew Point Humidity Pressure Visibility Wind Dir Wind Speed Gust Speed Precip Events Conditions
12:58 AM 38.7 °F 30.5 °F 27.7 °F 65% 30.24 in 10.0 mi NNE 13.8 mph 21.9 mph N/A   Clear
1:58 AM 36.7 °F 28.0 °F 26.4 °F 66% 30.25 in 10.0 mi NNE 13.8 mph 18.4 mph N/A   Clear
2:58 AM 35.1 °F 26.4 °F 23.2 °F 62% 30.25 in 10.0 mi North 12.7 mph - N/A   Clear
3:58 AM 32.7 °F 24.5 °F 21.4 °F 63% 30.27 in 10.0 mi North 10.4 mph - N/A   Partly Cloudy
4:58 AM 31.1 °F 20.9 °F 21.2 °F 67% 30.29 in 10.0 mi North 13.8 mph - N/A   Partly Cloudy
5:58 AM 29.3 °F 18.6 °F 20.7 °F 70% 30.30 in 10.0 mi NNE 13.8 mph - N/A   Overcast
6:58 AM 27.7 °F 15.6 °F 16.0 °F 62% 30.33 in 10.0 mi NNE 16.1 mph 20.7 mph N/A   Mostly Cloudy
7:58 AM 27.7 °F 18.2 °F 15.3 °F 60% 30.37 in 10.0 mi NNE 10.4 mph - N/A   Mostly Cloudy
8:58 AM 29.8 °F 18.4 °F 13.3 °F 50% 30.38 in 10.0 mi NNE 16.1 mph - N/A   Partly Cloudy
9:58 AM 32.5 °F 22.7 °F 8.1 °F 36% 30.39 in 10.0 mi NNE 13.8 mph - N/A   Overcast
10:58 AM 35.2 °F 25.8 °F 7.5 °F 32% 30.39 in 10.0 mi NE 15.0 mph 18.4 mph N/A   Clear
10:59 AM 35.6 °F 27.1 °F 6.8 °F 30% 30.37 in 10.0 mi North 12.7 mph 18.4 mph N/A   Clear
11:58 AM 38.7 °F 30.9 °F 9.5 °F 30% 30.38 in 10.0 mi NNE 12.7 mph 19.6 mph N/A   Clear
12:40 PM 41.0 °F 34.3 °F 10.4 °F 29% 30.35 in 10.0 mi North 11.5 mph - N/A   Clear
12:58 PM 40.8 °F 32.9 °F 10.4 °F 29% 30.36 in 10.0 mi North 15.0 mph 18.4 mph N/A   Clear
1:58 PM 43.0 °F 36.4 °F 10.6 °F 27% 30.35 in 10.0 mi NE 12.7 mph - N/A   Partly Cloudy
2:58 PM 44.6 °F 38.1 °F 7.7 °F 22% 30.32 in 10.0 mi NNE 13.8 mph 20.7 mph N/A   Mostly Cloudy
3:58 PM 44.6 °F 37.2 °F 6.6 °F 21% 30.31 in 10.0 mi NNE 17.3 mph 21.9 mph N/A   Scattered Clouds
4:58 PM 41.2 °F 31.9 °F 5.9 °F 23% 30.30 in 10.0 mi NNE 20.7 mph 27.6 mph N/A   Overcast
5:58 PM 39.4 °F 30.7 °F 4.6 °F 24% 30.34 in 10.0 mi NNE 16.1 mph 27.6 mph N/A   Overcast
6:58 PM 36.3 °F 27.5 °F 7.3 °F 30% 30.37 in 10.0 mi NNE 13.8 mph 25.3 mph N/A   Overcast
7:58 PM 33.1 °F 23.4 °F 12.9 °F 43% 30.40 in 10.0 mi North 13.8 mph 24.2 mph N/A   Overcast
8:58 PM 32.0 °F 21.6 °F 12.4 °F 44% 30.44 in 10.0 mi North 15.0 mph 26.5 mph N/A   Overcast
9:58 PM 29.1 °F 18.9 °F 18.1 °F 64% 30.49 in 10.0 mi North 12.7 mph - N/A   Overcast
10:20 PM 28.4 °F 17.0 °F 19.4 °F 69% 30.47 in 10.0 mi North 15.0 mph - N/A   Overcast
10:58 PM 27.3 °F 17.7 °F 22.1 °F 81% 30.52 in 10.0 mi North 10.4 mph 18.4 mph 0.00 in   Overcast
11:58 PM 26.4 °F 17.3 °F 23.2 °F 88% 30.55 in 10.0 mi North 9.2 mph - 0.00 in   Overcast